Content
SEND FEEDBACK

Daily
Averages
Monthly
Summary
United States of America

SALEM, VIRGINIA


Home > North America > United States > Virginia
Elevation: 190 feet     Latitude: 37 23N     Longitude: 080 05W

WEATHER
 
SELECT A DAY
Number of Records: 191,829;   Date Range: 1/1/95 - 10/19/14
 
SHARE

PRINT THIS DATA

[ ← Previous Day ]
WEATHER ALMANAC - AUGUST 25, 2014
[ Next Day → ]
[ °C ]   °F
Weather ElementAverageHighLow
Temperature68 °F77 °F (10:54 am)57.9 °F (7:54 am)
Dewpoint58.8 °F64 °F (10:54 pm)55.9 °F (11:54 am)
Humidity74.3 %100 % (7:05 am)50 % (11:54 am)
Barometer30.17 in30.20 in (10:54 pm)30.13 in (8:54 am)
Wind Speed3.4 mph10.4 mph (2:54 pm)
Weather ElementAverage
Visibility8.8 mi
Wind DirectionNE (48.8 °)

Weather ElementTotal
Precipitation---
Cooling Degree Days2.5 (Base 65)
Growing Degree Days17.5 (Base 50)
Averaged from 26 records on August 25, 2014
WEATHER CONDITIONS BREAKOUT
WIND DIRECTION BREAKOUT
WEATHER BY HOUR - AUGUST 25, 2014
[ °C ]   °F
Local TimeTemperatureDewpointHumidityBarometerVisibilityWind DirectionWind SpeedGust SpeedPrecipitationEventsConditions
12:54 AM68.0 °F63.0 °F84 %30.18 in10.0 miCalmOvercast
1:54 AM66.9 °F64.0 °F90 %30.17 in10.0 miCalmOvercast
2:54 AM66.9 °F59.0 °F76 %30.16 in10.0 miCalmOvercast
3:54 AM64.0 °F61.0 °F90 %30.15 in10.0 miCalmPartly Cloudy
4:54 AM62.6 °F60.8 °F94 %30.17 in10.0 miNE (50°)4.6 mphClear
5:54 AM60.1 °F59.0 °F96 %30.16 in10.0 miCalmPartly Cloudy
6:07 AM60.1 °F57.9 °F93 %30.18 in1.8 miCalmPartly Cloudy
6:12 AM59.0 °F57.9 °F96 %30.18 in4.0 miCalmPartly Cloudy
6:54 AM57.9 °F57.9 °F100 %30.17 in0.2 miNNW (340°)3.5 mphFogFog
7:54 AM60.1 °F59.0 °F96 %30.18 in4.0 miCalmMostly Cloudy
8:54 AM64.0 °F60.1 °F87 %30.18 in10.0 miNNE (30°)3.5 mphMostly Cloudy
9:54 AM68.0 °F61.0 °F78 %30.18 in10.0 miENE (60°)6.9 mphScattered Clouds
10:54 AM72.0 °F61.0 °F68 %30.19 in10.0 miNNE (20°)6.9 mphScattered Clouds
11:54 AM73.0 °F60.1 °F64 %30.19 in10.0 miNNE (30°)10.4 mphOvercast
12:54 PM73.0 °F59.0 °F61 %30.19 in10.0 miNE (40°)9.2 mphMostly Cloudy
1:54 PM75.0 °F57.9 °F55 %30.17 in10.0 miCalmScattered Clouds
2:54 PM77.0 °F57.0 °F50 %30.16 in10.0 miENE (60°)5.8 mphScattered Clouds
3:54 PM75.0 °F57.0 °F53 %30.14 in10.0 miVariable4.6 mphMostly Cloudy
4:54 PM77.0 °F57.0 °F50 %30.13 in10.0 miENE (60°)3.5 mphScattered Clouds
5:54 PM75.9 °F55.9 °F50 %30.13 in10.0 miSE (130°)6.9 mphScattered Clouds
6:54 PM75.0 °F57.0 °F53 %30.14 in10.0 miESE (110°)8.1 mphPartly Cloudy
7:54 PM73.0 °F57.0 °F57 %30.14 in10.0 miESE (110°)6.9 mphPartly Cloudy
8:54 PM71.1 °F55.9 °F59 %30.15 in10.0 miEast (80°)3.5 mphPartly Cloudy
9:54 PM68.0 °F57.9 °F70 %30.17 in10.0 miSSE (150°)3.5 mphPartly Cloudy
10:54 PM64.4 °F57.2 °F77 %30.20 in10.0 miCalmClear
11:54 PM62.1 °F57.9 °F86 %30.18 in10.0 miCalmClear
Hourly data recorded from KROA, located miles away from Salem, Virginia







STORIES FROM OUR PARTNERS